Wind_Speed
30 30 28 33 35 32 30 27 25 25 23 22 20 18 15 13 11 10 9 8 8 8 9 8 5 8 8 7 8 6 5 4 5 5 2 3 4 4 5 7 3 7 8 8 12 8 9 7 10 13 9 10 6 10
30 32 32 29 30 33 32 30 27 26 25 25 22 20 18 17 15 13 11 10 10 10 10 11 11 10 11 10 9 8 7 4 2 3 2 3 3 4 4 4 8 7 10 5 10 7 7 6 9 11 15 15 15 17
37 34 33 32 28 30 35 32 31 28 27 26 25 23 21 20 18 17 15 12 12 12 12 10 8 7 8 10 10 10 11 11 10 9 7 7 7 9 6 8 14 14 14 17 12 15 16 16 15 14 16 19 20 21
44 35 34 34 33 31 30 36 34 32 30 28 27 26 24 22 21 19 18 16 14 14 15 13 12 11 11 8 7 9 9 11 13 14 14 14 14 12 14 15 17 18 17 16 21 23 19 21 20 20 21 22 21 18
41 43 38 33 35 31 29 27 32 34 32 30 28 28 27 25 22 22 20 19 16 14 15 14 14 15 15 14 14 13 12 12 15 18 21 21 22 18 22 25 28 20 23 25 27 23 22 23 19 20 19 16 17 14
37 34 36 39 37 35 28 29 28 27 38 33 30 30 29 28 25 23 22 21 19 18 20 19 14 13 14 13 13 17 17 15 15 18 21 24 24 20 16 26 26 20 16 18 24 26 25 23 21 20 20 21 18 16
42 38 37 33 39 35 31 28 27 24 26 33 34 30 29 30 28 24 21 18 16 15 16 12 15 16 18 21 20 16 13 15 17 18 22 24 23 20 26 30 27 24 19 17 19 22 25 26 23 22 22 19 18 18
37 39 39 41 37 39 34 32 32 26 21 27 34 33 32 31 30 27 24 22 20 20 18 12 14 18 16 15 15 17 19 19 21 20 23 25 22 22 26 24 20 19 21 24 27 27 27 25 24 22 20 19 19 20
40 40 38 39 43 40 36 36 32 29 26 24 30 34 35 38 34 27 24 24 23 23 16 18 20 21 19 19 17 19 20 19 21 22 24 21 22 23 21 21 21 21 20 19 20 21 21 20 20 19 19 19 20 22
39 41 42 40 39 42 43 40 37 31 33 28 32 36 37 37 30 25 24 26 28 30 31 30 28 25 22 22 21 20 18 14 14 16 17 20 27 22 26 26 26 25 24 22 20 18 18 18 19 20 21 21 24 26
36 37 41 43 41 40 42 41 37 35 38 37 39 42 39 31 28 26 22 23 21 26 32 35 30 30 29 28 27 23 12 9 9 12 14 9 17 21 20 18 19 21 22 21 19 19 19 20 20 21 23 26 29 32
35 36 37 41 44 42 41 41 45 43 44 42 36 40 39 35 21 18 19 19 20 20 22 12 14 19 27 28 27 20 15 10 10 9 8 8 12 13 16 17 16 16 17 18 19 20 20 21 23 24 25 27 31 34
39 39 38 38 41 44 43 43 47 45 47 46 42 43 35 21 17 24 26 22 27 26 22 20 19 25 24 23 16 12 10 11 10 9 7 12 17 18 18 17 16 16 16 17 19 20 21 22 24 26 28 32 38 42
41 41 40 42 43 46 45 46 49 51 47 53 51 29 26 13 21 46 44 34 32 28 21 26 25 20 18 16 15 8 11 8 7 9 14 15 13 14 14 14 15 16 17 18 19 19 21 24 28 32 37 43 47 50
41 42 41 44 47 49 49 50 56 62 53 53 34 20 33 40 31 26 33 30 24 26 25 24 21 20 17 12 10 9 7 8 9 8 9 9 9 9 12 14 15 16 16 17 19 24 28 33 38 43 46 50 53 57
42 44 47 46 49 51 49 51 61 58 59 40 28 32 42 45 46 40 26 24 22 26 25 23 20 11 13 8 10 11 8 8 6 9 8 7 6 7 9 12 14 18 22 26 30 34 39 43 48 52 56 57 56 51
41 49 46 47 48 49 49 57 70 75 53 40 27 40 44 40 45 42 36 31 29 28 27 20 12 14 9 9 13 15 19 13 12 11 10 11 12 16 19 20 22 26 30 34 39 42 47 50 52 51 51 49 46 45
41 38 36 40 48 48 50 65 62 47 38 44 42 37 42 43 32 31 33 31 31 30 27 29 22 21 14 18 19 15 17 17 12 12 15 15 17 19 22 26 29 33 37 39 41 44 45 46 46 45 46 45 45 45
28 25 36 46 56 60 64 57 59 27 36 45 53 47 37 34 34 29 31 31 28 26 27 29 19 22 27 15 15 17 13 13 14 10 10 13 18 23 25 29 32 34 37 39 40 41 42 42 42 42 42 42 42 41
28 27 35 43 48 60 41 32 43 32 33 38 43 45 42 35 32 31 30 30 31 30 27 30 30 11 9 15 14 13 14 13 12 13 15 19 23 27 30 31 31 33 36 38 40 38 37 39 39 42 44 46 46 45
58 60 67 68 64 48 27 32 34 33 35 32 35 34 35 34 33 33 33 30 28 32 32 29 24 19 14 15 15 15 12 12 15 19 22 25 26 30 34 35 35 37 38 36 37 38 39 41 42 49 50 47 45 45
14 45 56 54 48 22 17 19 29 31 30 34 36 35 34 32 31 30 29 33 35 32 25 15 14 18 18 18 18 17 16 16 20 24 28 32 35 36 37 36 35 36 37 38 38 39 42 42 47 50 48 44 43 43
7 19 18 17 9 9 23 31 32 29 26 36 36 34 35 34 33 29 25 25 20 19 17 16 17 19 20 20 20 19 20 23 26 29 32 34 37 40 40 42 43 44 42 38 40 43 42 46 48 46 43 42 42 43
3 8 5 5 8 17 25 20 25 28 26 35 30 30 30 28 24 20 18 19 19 17 14 14 17 19 19 20 20 20 24 26 31 35 37 39 42 44 46 47 43 40 38 41 45 43 43 47 47 44 43 43 42 41
12 11 9 12 13 23 19 21 22 24 29 29 28 21 21 18 17 18 18 15 12 10 11 13 14 16 18 21 23 25 27 32 36 39 41 42 45 48 49 44 39 34 35 42 43 44 47 49 49 47 46 44 44 46
12 13 19 24 25 21 21 19 18 22 22 21 16 16 17 16 15 14 14 10 11 12 13 12 12 15 19 22 26 29 30 34 37 41 44 46 49 48 46 39 35 34 39 40 43 47 48 51 50 49 49 46 46 46
8 10 12 14 14 14 14 13 12 13 12 11 13 16 14 10 8 13 12 10 9 12 16 19 21 24 28 29 29 29 31 34 39 44 46 45 44 42 39 39 41 42 39 42 45 45 49 50 48 50 48 46 46 44
3 2 3 4 6 5 5 5 6 7 8 8 8 9 6 5 7 9 11 14 17 18 19 21 24 26 26 26 28 31 35 38 41 42 43 42 41 40 40 39 40 39 39 42 46 46 47 48 49 46 43 44 42 40
5 4 4 4 5 7 7 5 4 4 5 7 10 11 15 15 14 14 12 15 18 20 22 24 23 24 28 29 30 34 35 35 37 40 42 43 42 40 37 39 42 44 44 45 45 46 43 43 42 40 40 41 40 37
4 5 8 9 10 6 3 2 1 3 5 7 9 13 16 16 13 15 19 22 24 25 25 25 26 26 27 32 35 33 31 35 38 38 38 39 40 41 44 46 48 50 50 50 52 49 43 40 41 37 37 37 34 32
12 13 10 10 9 6 6 8 9 12 14 16 16 19 19 21 23 21 23 23 22 23 24 25 28 32 32 29 27 30 33 32 32 32 33 36 40 44 47 51 52 52 51 49 48 44 36 38 35 32 35 34 31 29
6 12 14 15 16 15 12 15 17 21 22 23 25 25 24 23 25 24 17 20 23 22 19 19 20 21 23 27 32 32 32 32 31 30 35 41 46 49 51 52 52 51 47 42 37 32 33 31 28 31 31 28 26 23
6 3 5 10 12 13 13 15 16 17 19 20 20 19 19 20 20 20 17 17 17 17 19 21 24 26 29 32 32 31 31 34 33 37 43 47 51 51 52 51 47 39 32 28 25 23 23 25 29 29 24 22 22 19
Wind_Direction
233 240 233 236 239 238 237 234 237 243 247 252 254 259 263 266 271 279 290 295 298 301 301 299 277 303 300 289 289 297 294 269 230 221 208 262 231 259 250 242 243 209 199 207 206 224 259 224 220 217 234 220 251 294
222 230 238 239 241 234 239 238 235 238 243 249 251 253 258 264 267 271 274 284 291 291 286 289 287 282 290 286 282 270 259 273 228 214 229 252 260 269 258 277 249 234 220 241 222 236 239 251 241 239 240 243 272 292
222 222 231 234 234 241 238 236 239 236 238 244 248 251 252 258 263 267 272 273 281 288 291 286 285 278 267 280 277 270 274 265 252 250 261 265 256 266 266 261 268 264 258 240 251 253 260 271 269 262 260 266 281 288
230 224 223 234 242 248 253 238 233 239 237 239 244 248 249 251 259 262 267 272 274 281 283 283 279 276 273 264 243 270 272 269 259 257 262 275 274 269 258 266 271 276 274 264 257 259 269 276 276 272 267 272 282 287
230 231 226 235 242 237 242 246 241 229 237 239 241 246 248 249 251 259 262 266 269 268 271 272 274 278 274 267 269 270 267 264 261 258 262 271 277 272 274 275 275 288 273 264 268 267 264 283 288 273 270 279 286 280
235 229 226 223 233 244 242 248 254 253 235 233 240 244 248 249 248 253 259 261 266 268 271 277 275 268 262 264 264 275 274 270 269 269 271 270 273 266 266 272 285 286 271 266 264 268 274 275 275 270 271 281 277 271
241 239 230 229 226 229 234 239 247 247 242 235 232 246 247 248 248 246 249 257 261 263 264 273 281 271 260 264 264 262 257 274 278 276 272 273 273 268 267 272 285 280 268 268 266 266 267 273 273 269 274 268 260 264
234 237 237 232 228 227 232 236 244 244 247 239 234 236 247 249 248 247 248 250 252 256 258 257 252 267 272 274 264 267 274 275 273 272 277 277 277 271 270 291 288 282 273 273 271 270 268 267 262 263 258 255 261 267
233 234 233 233 235 231 230 235 237 239 249 249 241 233 239 244 247 246 248 249 247 247 249 248 250 267 268 276 277 275 274 273 274 269 270 271 268 261 274 280 286 280 275 274 268 266 263 259 259 254 255 258 263 272
235 234 234 231 230 229 230 233 236 238 238 234 228 243 232 238 244 249 252 255 253 250 246 250 251 249 260 268 273 277 280 267 263 263 269 261 269 284 279 277 273 272 274 273 271 266 260 255 253 253 259 268 275 279
235 235 236 231 228 227 223 223 227 231 233 227 221 235 240 238 242 239 238 243 246 250 256 257 255 257 256 258 262 267 266 264 261 252 250 257 279 290 283 278 270 265 263 264 261 255 251 251 255 260 267 275 282 288
237 235 236 236 228 223 221 214 216 223 232 237 233 230 237 226 214 215 231 231 231 236 236 238 238 242 248 253 251 255 253 250 250 245 236 259 275 274 280 279 269 259 254 251 251 251 253 257 263 272 281 289 293 296
240 237 236 237 233 224 218 211 218 219 228 228 223 228 219 202 203 213 212 213 214 223 229 235 245 241 242 236 228 226 230 232 242 238 236 250 270 270 272 272 264 254 249 246 248 253 260 269 279 286 291 294 294 295
245 243 239 233 231 224 217 206 220 216 226 221 217 207 208 191 217 226 226 223 233 241 240 242 246 244 229 216 212 207 224 241 239 243 251 257 260 268 268 259 247 244 246 252 261 270 277 283 286 288 292 296 298 299
248 248 244 232 226 220 214 206 216 220 222 212 208 207 210 218 222 223 227 226 223 230 241 236 240 225 218 206 197 206 211 229 225 235 241 250 267 264 255 252 256 263 272 278 284 287 287 287 289 291 292 294 297 298
255 250 238 229 222 216 211 206 214 229 228 208 212 212 221 219 220 223 222 228 226 227 229 232 217 211 204 199 196 202 211 223 237 235 236 247 261 281 297 307 303 295 288 284 284 286 288 290 291 292 294 297 301 303
259 243 230 226 216 209 207 207 210 210 211 207 208 214 219 230 229 227 227 233 235 226 226 226 211 204 198 207 211 218 230 237 222 231 261 287 307 312 305 294 285 282 283 285 287 288 290 292 293 297 301 305 305 304
258 245 230 212 202 199 203 204 205 204 207 206 211 214 216 222 219 217 220 221 225 229 231 227 233 208 205 216 216 225 228 235 243 271 294 309 312 306 299 294 292 290 291 293 295 296 298 301 304 307 306 307 305 306
235 223 200 199 199 192 185 189 194 192 197 205 210 214 217 221 219 215 219 222 228 233 233 232 227 227 218 216 214 227 236 256 266 274 300 311 317 314 306 303 299 297 296 296 297 300 304 308 308 310 311 309 306 307
186 187 184 191 199 192 189 186 187 190 186 196 204 211 214 214 218 218 218 223 224 223 220 223 224 200 174 214 240 244 242 243 257 275 297 302 304 319 325 314 305 300 298 300 305 312 311 308 311 313 311 307 305 306
161 171 177 181 188 184 181 178 186 198 192 187 194 198 202 207 211 210 207 210 207 209 216 222 218 217 241 236 229 229 246 272 286 294 300 302 306 313 316 314 310 308 308 313 314 309 307 310 314 316 312 308 302 299
110 165 168 172 172 145 138 151 169 165 167 172 178 185 186 186 185 187 191 192 202 207 213 190 200 219 226 230 240 257 266 280 291 297 302 304 308 309 307 308 306 306 309 312 306 305 309 311 311 311 311 309 309 308
187 143 140 144 126 96 124 137 149 149 148 163 173 174 174 175 179 183 190 195 186 171 178 195 206 223 235 244 257 265 271 280 287 293 296 298 301 303 304 302 300 302 306 305 302 306 308 315 317 314 311 311 314 311
120 181 113 75 77 124 137 140 147 144 153 163 168 163 166 168 170 178 182 175 174 190 211 227 234 236 246 258 271 278 279 281 285 290 294 295 295 296 300 302 303 301 302 302 303 305 307 313 317 314 309 311 310 309
77 64 72 86 107 126 123 128 142 147 151 159 149 142 154 155 181 191 191 185 203 223 227 225 236 252 264 269 274 282 283 280 281 285 286 291 294 297 302 305 305 302 301 300 302 303 307 311 314 314 313 311 311 309
52 48 83 96 102 104 106 102 110 129 135 135 142 153 176 195 206 217 216 227 252 220 219 241 263 272 277 283 286 289 282 282 285 286 286 293 299 302 305 305 304 305 306 299 300 305 310 313 312 315 313 310 308 310
79 87 100 99 103 107 110 110 123 137 149 168 186 196 202 213 226 245 261 264 243 242 257 269 279 285 287 289 286 281 278 283 290 293 296 299 301 302 302 299 299 302 301 298 300 304 307 309 308 309 308 307 308 306
314 326 114 127 114 105 106 121 144 163 185 201 208 204 220 216 250 250 245 261 269 273 275 276 278 281 282 278 276 276 283 289 292 294 295 296 297 297 298 298 299 300 298 298 300 301 303 305 306 306 305 308 309 307
268 273 247 230 268 292 298 302 289 271 251 247 246 245 255 262 267 278 278 270 268 273 275 276 276 275 273 271 275 286 288 290 289 291 296 299 297 297 299 301 304 305 304 302 301 303 302 305 308 307 309 311 309 307
234 239 248 255 259 256 257 150 107 247 250 258 265 273 279 286 289 280 280 280 275 273 273 278 279 282 278 281 286 286 286 288 294 296 295 294 298 301 304 306 305 303 301 298 299 301 299 301 305 302 304 307 307 305
269 271 259 226 228 253 269 272 247 246 260 268 270 273 284 283 274 272 277 272 274 279 287 289 284 281 284 287 281 282 286 293 290 286 285 291 298 301 302 303 305 304 301 298 298 297 296 301 301 299 302 306 309 306
273 242 245 248 250 253 239 231 240 248 252 260 266 271 272 271 274 278 279 286 296 295 282 277 277 279 278 280 281 287 291 292 286 285 292 297 303 305 307 307 307 305 302 299 296 293 295 296 293 303 303 301 306 307
299 311 254 245 248 249 245 249 254 259 260 264 268 268 268 274 281 293 306 307 300 289 286 283 280 277 277 283 292 295 293 297 287 290 301 303 304 306 308 309 308 306 302 298 296 298 298 296 299 300 294 295 301 305
Height
3033 3037 3040 3044 3049 3053 3057 3059 3062 3065 3068 3070 3071 3072 3073 3073 3073 3073 3072 3072 3072 3071 3071 3070 3070 3071 3070 3070 3069 3070 3070 3068 3069 3070 3071 3071 3071 3071 3071 3071 3071 3072 3072 3073 3075 3076 3071 3069 3070 3073 3073 3072 3073 3074
3024 3029 3033 3037 3041 3045 3050 3052 3055 3058 3061 3064 3066 3067 3068 3070 3069 3070 3069 3068 3069 3069 3069 3068 3068 3068 3068 3068 3068 3068 3069 3068 3068 3069 3070 3070 3071 3071 3071 3071 3070 3072 3071 3071 3071 3068 3067 3067 3067 3068 3069 3070 3070 3069
3015 3020 3025 3030 3034 3038 3040 3045 3048 3051 3054 3057 3060 3062 3063 3065 3066 3066 3067 3065 3065 3065 3065 3064 3065 3065 3065 3065 3065 3066 3066 3067 3067 3067 3068 3068 3069 3069 3069 3068 3068 3067 3068 3066 3067 3064 3064 3064 3064 3066 3066 3066 3066 3064
3006 3011 3016 3022 3026 3031 3034 3036 3041 3045 3047 3049 3053 3056 3058 3059 3061 3062 3062 3062 3061 3061 3061 3062 3061 3061 3061 3062 3062 3062 3062 3062 3064 3065 3065 3065 3065 3065 3064 3065 3063 3064 3064 3062 3061 3061 3062 3060 3061 3061 3061 3061 3061 3060
2996 3002 3008 3014 3019 3023 3027 3030 3032 3036 3040 3043 3045 3048 3051 3053 3054 3056 3057 3058 3058 3060 3058 3057 3058 3058 3058 3058 3059 3058 3058 3058 3059 3059 3060 3060 3059 3061 3059 3058 3054 3058 3056 3056 3055 3056 3057 3057 3057 3055 3055 3055 3055 3054
2988 2993 2998 3005 3011 3016 3019 3023 3025 3028 3031 3035 3038 3041 3044 3047 3049 3050 3052 3054 3054 3054 3054 3053 3053 3053 3054 3054 3054 3055 3054 3054 3054 3054 3054 3053 3054 3056 3053 3048 3049 3050 3049 3048 3049 3049 3049 3049 3050 3050 3050 3050 3049 3049
2978 2984 2989 2995 3001 3007 3012 3016 3019 3021 3023 3027 3031 3034 3037 3040 3043 3045 3048 3049 3048 3049 3050 3049 3047 3047 3049 3049 3049 3049 3050 3050 3050 3049 3047 3047 3048 3049 3045 3042 3044 3044 3045 3045 3044 3044 3043 3043 3044 3044 3043 3042 3042 3043
2967 2974 2979 2985 2992 2998 3004 3008 3013 3016 3017 3019 3023 3027 3030 3032 3036 3039 3041 3043 3043 3045 3045 3044 3044 3045 3046 3046 3046 3046 3045 3045 3043 3042 3041 3040 3041 3040 3035 3037 3038 3037 3038 3038 3037 3037 3038 3037 3037 3037 3037 3038 3038 3037
2956 2962 2969 2975 2981 2988 2995 3001 3005 3009 3012 3014 3016 3018 3022 3024 3029 3034 3036 3037 3038 3042 3038 3035 3039 3041 3039 3040 3041 3041 3040 3040 3038 3036 3036 3035 3033 3029 3029 3030 3031 3031 3031 3031 3030 3030 3030 3031 3031 3032 3033 3034 3034 3034
2945 2951 2957 2963 2971 2977 2984 2991 2997 3001 3004 3007 3010 3010 3010 3016 3024 3028 3030 3030 3029 3029 3027 3026 3032 3035 3038 3037 3037 3039 3036 3036 3031 3031 3029 3024 3023 3026 3023 3024 3023 3024 3024 3025 3025 3026 3026 3027 3027 3027 3027 3027 3026 3026
2934 2939 2944 2951 2959 2966 2972 2981 2988 2995 2994 2995 2998 3001 3006 3012 3016 3020 3023 3022 3021 3018 3016 3017 3025 3028 3030 3031 3032 3033 3030 3030 3026 3024 3025 3016 3018 3020 3017 3017 3016 3015 3016 3018 3020 3020 3021 3022 3022 3023 3022 3021 3020 3019
2923 2928 2934 2941 2947 2953 2961 2969 2978 2982 2983 2988 2994 2995 3001 3005 3008 3011 3010 3011 3008 3010 3009 3012 3015 3018 3020 3023 3024 3025 3027 3025 3020 3019 3017 3011 3013 3013 3012 3011 3010 3010 3010 3013 3015 3015 3016 3017 3018 3018 3017 3016 3013 3010
2912 2917 2923 2929 2934 2941 2950 2959 2967 2970 2975 2980 2985 2988 2992 2992 2994 2993 2988 2989 2995 2996 3001 3005 3008 3010 3011 3015 3017 3020 3018 3016 3015 3011 3007 3007 3008 3007 3007 3006 3006 3006 3006 3007 3009 3011 3012 3012 3013 3011 3010 3008 3004 3000
2898 2903 2909 2915 2920 2928 2937 2948 2955 2958 2966 2969 2970 2973 2976 2974 2975 2973 2973 2981 2988 2993 2997 3000 3001 3004 3004 3008 3009 3010 3011 3010 3007 3004 3002 3002 3002 3002 3003 3002 3002 3002 3003 3004 3004 3006 3007 3007 3005 3004 3001 2997 2992 2989
2885 2888 2893 2898 2906 2914 2925 2936 2939 2945 2949 2951 2954 2953 2955 2962 2964 2966 2969 2976 2984 2987 2990 2993 2995 2998 2999 3001 3002 3003 3004 3000 2997 2996 2998 2998 2998 2998 2999 2999 3000 3001 3001 3002 3001 3000 2999 2998 2996 2993 2990 2986 2982 2976
2868 2869 2871 2883 2891 2902 2914 2924 2926 2931 2931 2936 2936 2939 2945 2951 2955 2958 2963 2970 2975 2979 2983 2986 2988 2990 2993 2994 2993 2993 2995 2992 2992 2994 2995 2995 2996 2997 2998 3000 3000 2999 2998 2996 2995 2993 2990 2988 2984 2979 2975 2972 2967 2961
2850 2844 2857 2867 2878 2891 2904 2908 2910 2913 2917 2917 2921 2928 2936 2943 2948 2954 2960 2964 2969 2972 2975 2978 2979 2982 2985 2985 2985 2984 2986 2989 2989 2991 2992 2993 2993 2994 2995 2995 2993 2992 2990 2988 2986 2983 2978 2975 2971 2965 2961 2958 2952 2947
2829 2833 2843 2854 2866 2881 2888 2894 2902 2901 2897 2903 2915 2922 2926 2933 2942 2947 2952 2956 2960 2962 2967 2970 2971 2972 2974 2974 2975 2979 2981 2982 2985 2987 2987 2987 2989 2989 2988 2985 2985 2982 2979 2976 2974 2969 2965 2961 2957 2954 2949 2944 2938 2934
2818 2823 2832 2841 2850 2861 2870 2872 2880 2878 2885 2895 2903 2914 2921 2928 2935 2942 2945 2949 2952 2956 2960 2961 2964 2963 2967 2969 2971 2974 2976 2979 2980 2981 2981 2982 2983 2982 2980 2978 2974 2972 2968 2965 2961 2957 2953 2950 2946 2941 2936 2932 2926 2923
2815 2820 2827 2837 2850 2859 2861 2865 2870 2875 2881 2889 2898 2908 2915 2922 2928 2933 2937 2940 2943 2947 2951 2953 2956 2960 2962 2965 2968 2970 2972 2974 2975 2975 2975 2975 2974 2972 2970 2966 2963 2960 2956 2953 2950 2947 2942 2938 2936 2932 2927 2921 2915 2911
2809 2816 2821 2830 2841 2849 2849 2857 2865 2871 2876 2886 2892 2902 2908 2914 2919 2924 2928 2932 2936 2940 2942 2946 2952 2954 2957 2961 2963 2965 2967 2968 2968 2967 2967 2966 2965 2962 2959 2956 2953 2949 2945 2943 2940 2936 2933 2929 2924 2919 2913 2908 2903 2898
2820 2821 2824 2827 2831 2838 2847 2852 2861 2863 2873 2880 2889 2895 2901 2908 2914 2918 2922 2925 2929 2935 2940 2946 2950 2952 2954 2957 2958 2960 2961 2961 2961 2960 2958 2956 2953 2951 2949 2947 2943 2940 2937 2934 2930 2925 2922 2918 2913 2907 2900 2895 2890 2885
2828 2829 2832 2833 2835 2842 2850 2851 2855 2862 2872 2880 2888 2893 2898 2904 2910 2915 2918 2924 2929 2934 2939 2942 2945 2947 2949 2951 2953 2954 2954 2954 2953 2952 2949 2947 2944 2941 2938 2935 2933 2929 2926 2923 2919 2915 2910 2907 2900 2894 2888 2883 2878 2873
2833 2834 2837 2840 2843 2848 2852 2855 2860 2865 2872 2880 2886 2891 2897 2902 2908 2913 2918 2923 2928 2931 2935 2938 2939 2941 2943 2945 2946 2947 2947 2946 2943 2942 2940 2936 2933 2931 2927 2924 2921 2919 2915 2909 2905 2902 2899 2894 2888 2882 2877 2873 2868 2863
2839 2842 2847 2847 2850 2856 2858 2862 2865 2869 2876 2881 2886 2892 2898 2905 2910 2914 2917 2921 2925 2928 2930 2931 2933 2935 2937 2938 2938 2939 2938 2936 2934 2930 2930 2927 2922 2918 2915 2913 2909 2908 2905 2899 2895 2891 2887 2883 2876 2870 2864 2860 2854 2849
2847 2850 2854 2854 2856 2861 2864 2869 2874 2878 2882 2886 2892 2898 2903 2906 2909 2912 2915 2919 2920 2922 2924 2926 2927 2928 2929 2930 2929 2929 2928 2925 2922 2918 2917 2916 2911 2905 2901 2899 2898 2896 2895 2887 2882 2877 2873 2869 2862 2857 2852 2847 2843 2838
2858 2862 2864 2866 2868 2871 2874 2878 2882 2885 2888 2892 2895 2899 2902 2904 2906 2910 2912 2914 2915 2917 2918 2919 2919 2920 2920 2920 2919 2918 2916 2913 2910 2907 2904 2903 2899 2896 2892 2889 2887 2885 2882 2876 2871 2867 2862 2857 2851 2846 2840 2835 2831 2825
2861 2864 2867 2870 2872 2874 2877 2880 2883 2886 2889 2892 2895 2898 2899 2901 2904 2906 2907 2908 2909 2910 2910 2911 2911 2911 2910 2910 2908 2906 2905 2902 2899 2895 2892 2891 2889 2886 2882 2878 2875 2871 2868 2864 2859 2855 2850 2845 2839 2834 2829 2823 2818 2814
2862 2864 2867 2869 2872 2874 2876 2879 2880 2883 2886 2889 2891 2893 2894 2896 2899 2900 2901 2901 2901 2902 2902 2902 2902 2901 2900 2899 2898 2896 2893 2891 2888 2884 2881 2878 2876 2874 2870 2867 2863 2859 2855 2850 2847 2843 2838 2833 2827 2822 2818 2813 2808 2803
2862 2864 2867 2869 2871 2873 2875 2877 2879 2881 2883 2885 2887 2888 2888 2890 2892 2892 2893 2893 2893 2892 2892 2891 2891 2890 2889 2887 2885 2885 2885 2881 2877 2874 2870 2867 2864 2862 2858 2854 2850 2846 2841 2836 2832 2829 2826 2821 2817 2813 2809 2804 2799 2795
2863 2864 2866 2867 2869 2872 2873 2875 2876 2878 2879 2880 2881 2882 2883 2883 2885 2886 2885 2885 2884 2884 2883 2882 2880 2878 2877 2876 2876 2874 2872 2871 2866 2863 2861 2857 2854 2850 2846 2841 2836 2831 2826 2821 2817 2814 2811 2809 2806 2802 2798 2794 2791 2787
2860 2861 2862 2864 2866 2868 2870 2871 2872 2873 2874 2875 2876 2877 2877 2876 2875 2876 2878 2877 2876 2874 2872 2871 2870 2870 2869 2867 2866 2863 2860 2858 2856 2854 2852 2847 2842 2838 2832 2826 2821 2815 2810 2806 2803 2801 2800 2797 2795 2793 2789 2787 2784 2781
2859 2859 2860 2861 2862 2863 2866 2867 2868 2868 2869 2869 2869 2870 2870 2871 2870 2870 2870 2869 2867 2865 2865 2864 2862 2860 2858 2857 2855 2853 2851 2849 2846 2843 2840 2835 2829 2824 2818 2812 2805 2801 2797 2794 2792 2791 2790 2788 2786 2784 2782 2780 2779 2777